Regional Weather Roundup
Issued by NWS Northern Indiana

Home | Current Version | Previous Version | Graphics & Text | Print | Product List | Glossary On
Versions: 1 2 3 4 5 6 7 8 9 10 11 12 13 14 15 16 17 18 19 20 21 22 23 24 25 26 27 28 29 30 31 32 33 34 35 36 37 38 39 40 41 42 43 44 45 46 47 48 49 50
000
ASUS43 KIWX 301400
RWRIWX

KIWX WEATHER ROUNDUP
NATIONAL WEATHER SERVICE NORTHERN INDIANA
1000 AM EDT THU OCT 30 2014

NOTE: "FAIR" INDICATES FEW OR NO CLOUDS BELOW 12,000 FEET WITH NO
SIGNIFICANT WEATHER AND/OR OBSTRUCTIONS TO VISIBILITY.

* THESE STATIONS ARE NOT UNDER NWS QUALITY CONTROL. THEY ALSO MAY NOT
  REPORT WEATHER SUCH AS PRECIPITATION OR FOG.

INZ001>027-301500-
NORTHERN INDIANA

CITY           SKY/WX    TMP DP  RH WIND       PRES   REMARKS
SOUTH BEND     CLOUDY    45  35  68 SW8       30.16R
ELKHART*       CLOUDY    45  36  70 SW5       30.16R
GOSHEN         CLOUDY    44  37  76 SW8       30.15R
ANGOLA*        CLOUDY    43  39  87 CALM      30.14S
FORT WAYNE     CLOUDY    44  38  79 SW3       30.17R
PERU/GRISSOM   CLOUDY    44  41  89 W3        30.16S

$$
INZ028>050-301500-
CENTRAL INDIANA

CITY           SKY/WX    TMP DP  RH WIND       PRES   REMARKS
LAFAYETTE      SUNNY     36  35  96 CALM      30.17F
KOKOMO*        CLOUDY    45  36  70 CALM      30.18R
MUNCIE*        CLOUDY    45  36  70 CALM      30.17S
INDIANAPOLIS   MOSUNNY   41  33  73 CALM      30.17S

$$
MIZ043>046-050>051-056>058-064>065-071>073-077>080-301500-
SOUTHWEST LOWER MICHIGAN

CITY           SKY/WX    TMP DP  RH WIND       PRES   REMARKS
BATTLE CREEK   CLOUDY    44  37  76 S6        30.14R
BENTON HARBOR  CLOUDY    45  37  73 S5        30.13S
COLDWATER*     CLOUDY    45  39  81 CALM      30.14R
HILLSDALE*     CLOUDY    42  41  98 CALM      30.13S
HOLLAND        CLOUDY    47  40  76 CALM      30.13S
GRAND RAPIDS   CLOUDY    45  40  82 S3        30.12S
KALAMAZOO      CLOUDY    45  38  76 SW6       30.14R
STURGIS*       CLOUDY    43  39  87 S3        30.14R
THREE RIVERS*  CLOUDY    45  40  82 S3        30.14S

$$
OHZ001>008-015>018-024>025-301500-
NORTHWEST OHIO

CITY           SKY/WX    TMP DP  RH WIND       PRES   REMARKS
DEFIANCE       CLOUDY    42  38  85 CALM      30.17R
FINDLAY        SUNNY     44  37  76 NW5       30.15R
TOLEDO EXPRESS SUNNY     39  35  86 SW3       30.16R
TOLEDO METCALF SUNNY     42  35  76 CALM      30.17R
LIMA           CLOUDY    44  37  76 NW5       30.16R

$$
AND FOR LAKE MICHIGAN COASTAL AND OPEN LAKE BUOY OBSERVATIONS

STATION/POSITION TEMP    WIND        PRES    VSBY  WAVE
                 AIR SEA DIR/SP/G                  HT/PER
                 (F)     (DEG/KT/KT) (MB)    (MI)  (FT/S)
CALUMET HARBOR    40     200/  4/  5 1019.7R
MICHIGAN CITY     41     180/  8/  9   N/A
SAINT JOSEPH      49     220/  6/ 11 1020.3S
SOUTH LAKE BUOY   48 53  220/ 10/ 12 1020.2F         1/ 5

$$
&&



USA.gov is the U.S. government's official web portal to all federal, state and local government web resources and services.